Private Wetterstation Wechselburg
Wetterdaten: Mittwoch, 29.10.2014
Datum Zeit Temp. +2m Bodentemp. Temp.+5cm Temp. Wind Windchill X Diff Temp. Feuchte +2m Feuchte +5cm Sonnenschein Luftdruck Regen Wind Richtung Richtung Sonnenschein UV Taupunkt Windchill Windben
29.10.2014 00:00 -0,3 C 22,5 C 1,1 C -0,4 C -0,6 C 0,0 C 89 % 91 % 0 % 1021,6 hPa 0,0 l/m 0,0 km/h (0 Bft) O-NO 67 0 min 0,0 UV-I -1,9 C -0,6 C 0,0 km/h (0 Bft)
29.10.2014 00:05 -0,5 C 22,5 C 1,1 C -0,6 C -0,7 C 0,0 C 89 % 91 % 0 % 1021,6 hPa 0,0 l/m 0,0 km/h (0 Bft) W-SW 247 0 min 0,0 UV-I -2,1 C -0,7 C 0,0 km/h (0 Bft)
29.10.2014 00:10 -0,6 C 22,5 C 1,1 C -0,7 C -1,0 C 0,0 C 89 % 91 % 0 % 1021,6 hPa 0,0 l/m 0,0 km/h (0 Bft) W-SW 247 0 min 0,0 UV-I -2,2 C -1,0 C 0,0 km/h (0 Bft)
29.10.2014 00:15 -0,7 C 22,4 C 1,1 C -0,9 C -1,2 C 0,0 C 89 % 91 % 0 % 1021,6 hPa 0,0 l/m 0,0 km/h (0 Bft) SW 225 0 min 0,0 UV-I -2,3 C -1,2 C 0,0 km/h (0 Bft)
29.10.2014 00:20 -0,8 C 22,4 C 0,9 C -1,0 C -1,3 C 0,0 C 89 % 91 % 0 % 1021,6 hPa 0,0 l/m 0,0 km/h (0 Bft) SW 225 0 min 0,0 UV-I -2,4 C -1,3 C 0,0 km/h (0 Bft)
29.10.2014 00:25 -0,9 C 22,5 C 0,9 C -1,1 C -1,4 C 0,0 C 89 % 91 % 0 % 1021,6 hPa 0,0 l/m 0,0 km/h (0 Bft) SW 225 0 min 0,0 UV-I -2,5 C -1,4 C 0,0 km/h (0 Bft)
29.10.2014 00:30 -0,9 C 22,5 C 0,7 C -1,1 C -1,5 C 0,0 C 89 % 91 % 0 % 1021,9 hPa 0,0 l/m 0,0 km/h (0 Bft) S-SW 202 0 min 0,0 UV-I -2,5 C -1,5 C 0,0 km/h (0 Bft)
29.10.2014 00:35 -1,1 C 22,4 C 0,8 C -1,3 C -1,6 C 0,0 C 88 % 91 % 0 % 1021,9 hPa 0,0 l/m 0,0 km/h (0 Bft) S-SW 202 0 min 0,0 UV-I -2,8 C -1,6 C 0,0 km/h (0 Bft)
29.10.2014 00:42 -1,2 C 22,4 C 0,8 C -1,3 C -1,6 C 0,0 C 89 % 91 % 0 % 1021,9 hPa 0,0 l/m 0,0 km/h (0 Bft) N 0 0 min 0,0 UV-I -2,8 C -1,6 C 0,0 km/h (0 Bft)
29.10.2014 00:45 -1,1 C 22,4 C 0,9 C -1,2 C -1,5 C 0,0 C 89 % 92 % 0 % 1021,9 hPa 0,0 l/m 0,0 km/h (0 Bft) SW 225 0 min 0,0 UV-I -2,7 C -1,5 C 0,0 km/h (0 Bft)
29.10.2014 00:50 -1,3 C 22,4 C 0,9 C -1,4 C -1,5 C 0,0 C 89 % 92 % 0 % 1021,1 hPa 0,0 l/m 0,0 km/h (0 Bft) SW 225 0 min 0,0 UV-I -2,9 C -1,5 C 0,0 km/h (0 Bft)
29.10.2014 00:55 -1,3 C 22,4 C 0,8 C -1,3 C -1,4 C 0,0 C 89 % 91 % 0 % 1021,1 hPa 0,0 l/m 0,0 km/h (0 Bft) O-SO 112 0 min 0,0 UV-I -2,9 C -1,4 C 0,0 km/h (0 Bft)
29.10.2014 01:00 -0,9 C 22,4 C 0,8 C -1,0 C -1,2 C 0,0 C 89 % 91 % 0 % 1021,1 hPa 0,0 l/m 0,0 km/h (0 Bft) O 90 0 min 0,0 UV-I -2,5 C -1,2 C 0,0 km/h (0 Bft)
29.10.2014 01:05 -0,9 C 22,5 C 0,8 C -1,0 C -1,1 C 0,0 C 90 % 91 % 0 % 1021,1 hPa 0,0 l/m 0,0 km/h (0 Bft) O 90 0 min 0,0 UV-I -2,3 C -1,1 C 0,0 km/h (0 Bft)
29.10.2014 01:10 -0,9 C 22,4 C 0,8 C -0,9 C -0,9 C 0,0 C 90 % 91 % 0 % 1020,9 hPa 0,0 l/m 0,0 km/h (0 Bft) O-SO 112 0 min 0,0 UV-I -2,3 C -0,9 C 0,0 km/h (0 Bft)
29.10.2014 01:15 -0,9 C 22,4 C 0,8 C -0,9 C -1,0 C 0,0 C 90 % 91 % 0 % 1020,9 hPa 0,0 l/m 0,0 km/h (0 Bft) W-SW 247 0 min 0,0 UV-I -2,3 C -1,0 C 0,0 km/h (0 Bft)
29.10.2014 01:20 -0,9 C 22,3 C 0,6 C -1,0 C -1,3 C 0,0 C 89 % 91 % 0 % 1020,9 hPa 0,0 l/m 0,0 km/h (0 Bft) W 270 0 min 0,0 UV-I -2,5 C -1,3 C 0,0 km/h (0 Bft)
29.10.2014 01:25 -1,1 C 22,3 C 0,5 C -1,2 C -1,5 C 0,0 C 89 % 91 % 0 % 1020,9 hPa 0,0 l/m 0,0 km/h (0 Bft) W-SW 247 0 min 0,0 UV-I -2,7 C -1,5 C 0,0 km/h (0 Bft)
29.10.2014 01:30 -1,2 C 22,3 C 0,5 C -1,4 C -1,7 C 0,0 C 89 % 91 % 0 % 1020,9 hPa 0,0 l/m 0,0 km/h (0 Bft) N-NO 22 0 min 0,0 UV-I -2,8 C -1,7 C 0,0 km/h (0 Bft)
29.10.2014 01:35 -1,3 C 22,3 C 0,5 C -1,4 C -1,7 C 0,0 C 89 % 91 % 0 % 1020,9 hPa 0,0 l/m 0,0 km/h (0 Bft) NW 315 0 min 0,0 UV-I -2,9 C -1,7 C 0,0 km/h (0 Bft)
29.10.2014 01:40 -1,4 C 22,3 C 0,4 C -1,5 C -1,8 C 0,0 C 89 % 91 % 0 % 1020,9 hPa 0,0 l/m 0,0 km/h (0 Bft) W-SW 247 0 min 0,0 UV-I -3,0 C -1,8 C 0,0 km/h (0 Bft)
29.10.2014 01:45 -1,5 C 22,3 C 0,3 C -1,6 C -1,9 C 0,0 C 89 % 91 % 0 % 1020,9 hPa 0,0 l/m 0,0 km/h (0 Bft) W 270 0 min 0,0 UV-I -3,1 C -1,9 C 0,0 km/h (0 Bft)
29.10.2014 01:50 -1,5 C 22,3 C 0,3 C -1,6 C -1,9 C 0,0 C 89 % 91 % 0 % 1020,6 hPa 0,0 l/m 0,0 km/h (0 Bft) O 90 0 min 0,0 UV-I -3,1 C -1,9 C 0,0 km/h (0 Bft)
29.10.2014 01:55 -1,5 C 22,3 C 0,2 C -1,6 C -1,8 C 0,0 C 89 % 91 % 0 % 1020,6 hPa 0,0 l/m 0,0 km/h (0 Bft) NW 315 0 min 0,0 UV-I -3,1 C -1,8 C 0,0 km/h (0 Bft)
29.10.2014 02:00 -1,5 C 22,2 C 0,1 C -1,6 C -1,8 C 0,0 C 89 % 91 % 0 % 1020,6 hPa 0,0 l/m 0,0 km/h (0 Bft) W-SW 247 0 min 0,0 UV-I -3,1 C -1,8 C 0,0 km/h (0 Bft)
29.10.2014 02:05 -1,6 C 22,2 C 0,1 C -1,7 C -1,8 C 0,0 C 89 % 91 % 0 % 1020,6 hPa 0,0 l/m 0,0 km/h (0 Bft) W-NW 292 0 min 0,0 UV-I -3,2 C -1,8 C 0,0 km/h (0 Bft)
29.10.2014 02:10 -1,7 C 22,2 C 0,1 C -1,8 C -1,9 C 0,0 C 89 % 91 % 0 % 1020,6 hPa 0,0 l/m 0,0 km/h (0 Bft) W 270 0 min 0,0 UV-I -3,3 C -1,9 C 0,0 km/h (0 Bft)
29.10.2014 02:15 -1,7 C 22,2 C 0,1 C -1,8 C -2,0 C 0,0 C 89 % 91 % 0 % 1020,6 hPa 0,0 l/m 0,0 km/h (0 Bft) O-NO 67 0 min 0,0 UV-I -3,3 C -2,0 C 0,0 km/h (0 Bft)
29.10.2014 02:20 -1,7 C 22,3 C 0,2 C -1,7 C -1,8 C 0,0 C 90 % 91 % 0 % 1020,6 hPa 0,0 l/m 0,0 km/h (0 Bft) O-SO 112 0 min 0,0 UV-I -3,1 C -1,8 C 0,0 km/h (0 Bft)
29.10.2014 02:25 -1,6 C 22,3 C 0,3 C -1,6 C -1,7 C 0,0 C 90 % 91 % 0 % 1020,6 hPa 0,0 l/m 0,2 km/h (0 Bft) O 90 0 min 0,0 UV-I -3,0 C -1,7 C 2,1 km/h (1 Bft)
29.10.2014 02:30 -1,3 C 22,2 C 0,3 C -1,3 C -1,4 C 0,0 C 90 % 91 % 0 % 1020,1 hPa 0,0 l/m 0,5 km/h (0 Bft) W-NW 292 0 min 0,0 UV-I -2,7 C -1,4 C 0,0 km/h (0 Bft)
29.10.2014 02:35 -1,3 C 22,2 C 0,3 C -1,4 C -1,5 C 0,0 C 90 % 91 % 0 % 1020,1 hPa 0,0 l/m 0,5 km/h (0 Bft) W-SW 247 0 min 0,0 UV-I -2,7 C -1,5 C 0,0 km/h (0 Bft)
29.10.2014 02:40 -1,5 C 22,1 C 0,1 C -1,6 C -1,8 C 0,0 C 90 % 91 % 0 % 1020,1 hPa 0,0 l/m 0,0 km/h (0 Bft) W-SW 247 0 min 0,0 UV-I -2,9 C -1,8 C 0,0 km/h (0 Bft)
29.10.2014 02:45 -1,5 C 22,1 C 0,0 C -1,6 C -1,9 C 0,0 C 90 % 91 % 0 % 1020,1 hPa 0,0 l/m 0,0 km/h (0 Bft) W-NW 292 0 min 0,0 UV-I -2,9 C -1,9 C 0,0 km/h (0 Bft)
29.10.2014 02:50 -1,7 C 22,1 C -0,1 C -1,9 C -2,2 C 0,0 C 90 % 91 % 0 % 1020,2 hPa 0,0 l/m 0,0 km/h (0 Bft) W-SW 247 0 min 0,0 UV-I -3,1 C -2,2 C 0,0 km/h (0 Bft)
29.10.2014 02:55 -1,8 C 22,1 C -0,1 C -2,0 C -2,3 C 0,0 C 89 % 91 % 0 % 1020,2 hPa 0,0 l/m 0,0 km/h (0 Bft) W-SW 247 0 min 0,0 UV-I -3,4 C -2,3 C 0,0 km/h (0 Bft)
29.10.2014 03:00 -1,7 C 22,1 C -0,1 C -1,9 C -2,3 C 0,0 C 90 % 91 % 0 % 1020,2 hPa 0,0 l/m 0,0 km/h (0 Bft) O-SO 112 0 min 0,0 UV-I -3,1 C -2,3 C 0,0 km/h (0 Bft)
29.10.2014 03:05 -1,8 C 22,1 C -0,1 C -1,9 C -2,2 C 0,0 C 89 % 91 % 0 % 1020,2 hPa 0,0 l/m 0,0 km/h (0 Bft) O-NO 67 0 min 0,0 UV-I -3,4 C -2,2 C 0,0 km/h (0 Bft)
29.10.2014 03:10 -1,7 C 22,1 C -0,1 C -1,8 C -2,0 C 0,0 C 90 % 91 % 0 % 1020,0 hPa 0,0 l/m 0,0 km/h (0 Bft) N-NW 337 0 min 0,0 UV-I -3,1 C -2,0 C 0,0 km/h (0 Bft)
29.10.2014 03:15 -1,7 C 22,1 C -0,1 C -1,3 C -1,3 C 0,4 C 90 % 91 % 0 % 1020,0 hPa 0,0 l/m 0,0 km/h (0 Bft) N-NW 337 0 min 0,0 UV-I -3,1 C -1,3 C 0,0 km/h (0 Bft)
29.10.2014 03:20 -1,9 C 22,1 C -0,1 C -1,1 C -1,1 C 0,8 C 89 % 91 % 0 % 1020,0 hPa 0,0 l/m 0,0 km/h (0 Bft) N-NW 337 0 min 0,0 UV-I -3,5 C -1,1 C 0,0 km/h (0 Bft)
29.10.2014 03:25 -1,9 C 22,1 C -0,1 C -1,3 C -1,3 C 0,6 C 89 % 92 % 0 % 1020,0 hPa 0,0 l/m 0,0 km/h (0 Bft) N-NW 337 0 min 0,0 UV-I -3,5 C -1,3 C 0,0 km/h (0 Bft)
29.10.2014 03:30 -2,0 C 22,1 C -0,1 C -1,5 C -1,5 C 0,5 C 89 % 92 % 0 % 1019,9 hPa 0,0 l/m 0,0 km/h (0 Bft) N-NW 337 0 min 0,0 UV-I -3,6 C -1,5 C 0,0 km/h (0 Bft)
29.10.2014 03:35 -2,0 C 22,1 C -0,1 C -1,6 C -1,6 C 0,4 C 89 % 91 % 0 % 1019,9 hPa 0,0 l/m 0,0 km/h (0 Bft) N-NW 337 0 min 0,0 UV-I -3,6 C -1,6 C 0,0 km/h (0 Bft)
29.10.2014 03:41 -1,9 C 22,0 C -0,3 C -1,8 C -1,8 C 0,1 C 90 % 91 % 0 % 1019,9 hPa 0,0 l/m 0,0 km/h (0 Bft) N 0 0 min 0,0 UV-I -3,3 C -1,8 C 0,0 km/h (0 Bft)
29.10.2014 03:45 -2,1 C 22,1 C -0,3 C -1,9 C -1,9 C 0,2 C 90 % 92 % 0 % 1019,9 hPa 0,0 l/m 0,0 km/h (0 Bft) N-NW 337 0 min 0,0 UV-I -3,5 C -1,9 C 0,0 km/h (0 Bft)
29.10.2014 03:50 -1,9 C 22,0 C -0,3 C -1,8 C -1,8 C 0,1 C 90 % 92 % 0 % 1020,1 hPa 0,0 l/m 0,0 km/h (0 Bft) N-NW 337 0 min 0,0 UV-I -3,3 C -1,8 C 0,0 km/h (0 Bft)
29.10.2014 03:55 -2,0 C 22,0 C -0,3 C -1,8 C -1,8 C 0,2 C 90 % 92 % 0 % 1020,1 hPa 0,0 l/m 0,0 km/h (0 Bft) N-NW 337 0 min 0,0 UV-I -3,4 C -1,8 C 0,0 km/h (0 Bft)
29.10.2014 04:00 -2,0 C 22,0 C -0,1 C -1,9 C -1,9 C 0,1 C 90 % 92 % 0 % 1020,1 hPa 0,0 l/m 0,0 km/h (0 Bft) N-NW 337 0 min 0,0 UV-I -3,4 C -1,9 C 0,0 km/h (0 Bft)
29.10.2014 04:05 -1,9 C 22,0 C -0,3 C -2,0 C -2,2 C 0,0 C 90 % 92 % 0 % 1020,1 hPa 0,0 l/m 0,0 km/h (0 Bft) N-NW 337 0 min 0,0 UV-I -3,3 C -2,2 C 0,0 km/h (0 Bft)
29.10.2014 04:10 -2,1 C 22,0 C -0,4 C -2,2 C -2,3 C 0,0 C 90 % 91 % 0 % 1019,9 hPa 0,0 l/m 0,0 km/h (0 Bft) N-NW 337 0 min 0,0 UV-I -3,5 C -2,3 C 0,0 km/h (0 Bft)
29.10.2014 04:15 -2,1 C 22,0 C -0,1 C -2,1 C -2,2 C 0,0 C 90 % 92 % 0 % 1019,9 hPa 0,0 l/m 0,0 km/h (0 Bft) N-NW 337 0 min 0,0 UV-I -3,5 C -2,2 C 0,0 km/h (0 Bft)
29.10.2014 04:20 -2,0 C 22,0 C -0,3 C -2,0 C -2,0 C 0,0 C 90 % 92 % 0 % 1019,9 hPa 0,0 l/m 0,0 km/h (0 Bft) N-NW 337 0 min 0,0 UV-I -3,4 C -2,0 C 0,0 km/h (0 Bft)
29.10.2014 04:25 -2,0 C 21,9 C -0,3 C -1,9 C -1,9 C 0,1 C 90 % 92 % 0 % 1019,9 hPa 0,0 l/m 0,0 km/h (0 Bft) N-NW 337 0 min 0,0 UV-I -3,4 C -1,9 C 0,0 km/h (0 Bft)
29.10.2014 04:30 -2,0 C 21,9 C -0,3 C -2,0 C -2,0 C 0,0 C 90 % 92 % 0 % 1020,6 hPa 0,0 l/m 0,0 km/h (0 Bft) N-NW 337 0 min 0,0 UV-I -3,4 C -2,0 C 0,0 km/h (0 Bft)
29.10.2014 04:35 -2,1 C 21,9 C -0,1 C -2,0 C -2,0 C 0,1 C 90 % 92 % 0 % 1020,6 hPa 0,0 l/m 0,0 km/h (0 Bft) N-NW 337 0 min 0,0 UV-I -3,5 C -2,0 C 0,0 km/h (0 Bft)
29.10.2014 04:40 -2,1 C 21,9 C -0,4 C -2,1 C -2,2 C 0,0 C 90 % 92 % 0 % 1020,6 hPa 0,0 l/m 0,0 km/h (0 Bft) N-NW 337 0 min 0,0 UV-I -3,5 C -2,2 C 0,0 km/h (0 Bft)
29.10.2014 04:45 -2,1 C 21,9 C -0,4 C -2,2 C -2,3 C 0,0 C 90 % 92 % 0 % 1020,6 hPa 0,0 l/m 0,0 km/h (0 Bft) N-NW 337 0 min 0,0 UV-I -3,5 C -2,3 C 0,0 km/h (0 Bft)
29.10.2014 04:50 -2,1 C 21,9 C -0,4 C -2,2 C -2,4 C 0,0 C 90 % 92 % 0 % 1020,2 hPa 0,0 l/m 0,0 km/h (0 Bft) N-NW 337 0 min 0,0 UV-I -3,5 C -2,4 C 0,0 km/h (0 Bft)
29.10.2014 04:55 -2,1 C 21,8 C -0,5 C -2,2 C -2,4 C 0,0 C 90 % 92 % 0 % 1020,2 hPa 0,0 l/m 0,0 km/h (0 Bft) N-NW 337 0 min 0,0 UV-I -3,5 C -2,4 C 0,0 km/h (0 Bft)
29.10.2014 05:00 -2,1 C 21,8 C -0,5 C -2,2 C -2,4 C 0,0 C 90 % 92 % 0 % 1020,2 hPa 0,0 l/m 0,0 km/h (0 Bft) N-NW 337 0 min 0,0 UV-I -3,5 C -2,4 C 0,0 km/h (0 Bft)
29.10.2014 05:05 -2,1 C 21,8 C -0,5 C -2,2 C -2,4 C 0,0 C 90 % 92 % 0 % 1020,2 hPa 0,0 l/m 0,0 km/h (0 Bft) N-NW 337 0 min 0,0 UV-I -3,5 C -2,4 C 0,0 km/h (0 Bft)
29.10.2014 05:10 -2,1 C 21,8 C -0,3 C -2,2 C -2,4 C 0,0 C 90 % 92 % 0 % 1020,1 hPa 0,0 l/m 0,0 km/h (0 Bft) N-NW 337 0 min 0,0 UV-I -3,5 C -2,4 C 0,0 km/h (0 Bft)
29.10.2014 05:15 -2,3 C 21,8 C -0,3 C -2,3 C -2,4 C 0,0 C 90 % 92 % 0 % 1020,1 hPa 0,0 l/m 0,0 km/h (0 Bft) N-NW 337 0 min 0,0 UV-I -3,7 C -2,4 C 0,0 km/h (0 Bft)
29.10.2014 05:20 -2,3 C 21,8 C -0,5 C -2,3 C -2,4 C 0,0 C 90 % 92 % 0 % 1020,1 hPa 0,0 l/m 0,0 km/h (0 Bft) N-NW 337 0 min 0,0 UV-I -3,7 C -2,4 C 0,0 km/h (0 Bft)
29.10.2014 05:25 -2,1 C 21,8 C -0,5 C -2,2 C -2,4 C 0,0 C 90 % 92 % 0 % 1020,1 hPa 0,0 l/m 0,0 km/h (0 Bft) N-NW 337 0 min 0,0 UV-I -3,5 C -2,4 C 0,0 km/h (0 Bft)
29.10.2014 05:30 -2,3 C 21,8 C -0,5 C -2,3 C -2,4 C 0,0 C 90 % 92 % 0 % 1020,2 hPa 0,0 l/m 0,0 km/h (0 Bft) N-NW 337 0 min 0,0 UV-I -3,7 C -2,4 C 0,0 km/h (0 Bft)
29.10.2014 05:35 -2,3 C 21,8 C -0,4 C -2,3 C -2,4 C 0,0 C 90 % 92 % 0 % 1020,2 hPa 0,0 l/m 0,0 km/h (0 Bft) N-NW 337 0 min 0,0 UV-I -3,7 C -2,4 C 0,0 km/h (0 Bft)
29.10.2014 05:40 -2,3 C 21,8 C -0,3 C -2,3 C -2,3 C 0,0 C 90 % 92 % 0 % 1020,2 hPa 0,0 l/m 0,0 km/h (0 Bft) N-NW 337 0 min 0,0 UV-I -3,7 C -2,3 C 0,0 km/h (0 Bft)
29.10.2014 05:45 -2,3 C 21,7 C -0,3 C -2,1 C -2,1 C 0,2 C 90 % 92 % 0 % 1020,2 hPa 0,0 l/m 0,0 km/h (0 Bft) N-NW 337 0 min 0,0 UV-I -3,7 C -2,1 C 0,0 km/h (0 Bft)
29.10.2014 05:50 -2,2 C 21,8 C -0,3 C -2,0 C -2,0 C 0,2 C 90 % 92 % 0 % 1020,4 hPa 0,0 l/m 0,0 km/h (0 Bft) N-NW 337 0 min 0,0 UV-I -3,6 C -2,0 C 0,0 km/h (0 Bft)
29.10.2014 05:55 -2,1 C 21,8 C -0,3 C -1,8 C -1,8 C 0,3 C 90 % 92 % 0 % 1020,4 hPa 0,0 l/m 0,0 km/h (0 Bft) N-NW 337 0 min 0,0 UV-I -3,5 C -1,8 C 0,0 km/h (0 Bft)
29.10.2014 06:00 -1,9 C 21,7 C -0,1 C -1,6 C -1,6 C 0,3 C 91 % 92 % 0 % 1020,4 hPa 0,0 l/m 0,0 km/h (0 Bft) N-NW 337 0 min 0,0 UV-I -3,2 C -1,6 C 0,0 km/h (0 Bft)
29.10.2014 06:05 -1,9 C 21,7 C -0,1 C -1,5 C -1,5 C 0,4 C 91 % 92 % 0 % 1020,4 hPa 0,0 l/m 0,0 km/h (0 Bft) N-NW 337 0 min 0,0 UV-I -3,2 C -1,5 C 0,0 km/h (0 Bft)
29.10.2014 06:10 -1,7 C 21,7 C -0,1 C -1,1 C -1,1 C 0,6 C 91 % 92 % 0 % 1020,7 hPa 0,0 l/m 0,0 km/h (0 Bft) N-NW 337 0 min 0,0 UV-I -3,0 C -1,1 C 0,0 km/h (0 Bft)
29.10.2014 06:15 -1,6 C 21,7 C -0,1 C -1,1 C -1,1 C 0,5 C 91 % 92 % 0 % 1020,7 hPa 0,0 l/m 0,0 km/h (0 Bft) N-NW 337 0 min 0,0 UV-I -2,9 C -1,1 C 0,0 km/h (0 Bft)
29.10.2014 06:20 -1,5 C 21,7 C 0,1 C -1,0 C -1,0 C 0,5 C 91 % 92 % 0 % 1020,7 hPa 0,0 l/m 0,0 km/h (0 Bft) N-NW 337 0 min 0,0 UV-I -2,8 C -1,0 C 0,0 km/h (0 Bft)
29.10.2014 06:25 -1,3 C 21,7 C 0,1 C -0,8 C -0,8 C 0,5 C 91 % 92 % 0 % 1020,7 hPa 0,0 l/m 0,0 km/h (0 Bft) N-NW 337 0 min 0,0 UV-I -2,6 C -0,8 C 0,0 km/h (0 Bft)
29.10.2014 06:30 -1,3 C 21,8 C 0,4 C -0,4 C -0,4 C 0,9 C 91 % 92 % 0 % 1020,8 hPa 0,0 l/m 0,0 km/h (0 Bft) N-NW 337 0 min 0,0 UV-I -2,6 C -0,4 C 0,0 km/h (0 Bft)
29.10.2014 06:35 -1,3 C 21,7 C 0,4 C -0,3 C -0,3 C 1,0 C 91 % 92 % 0 % 1020,8 hPa 0,0 l/m 0,0 km/h (0 Bft) N-NW 337 0 min 0,0 UV-I -2,6 C -0,3 C 0,0 km/h (0 Bft)
29.10.2014 06:41 -1,3 C 21,7 C 0,4 C -0,4 C -0,4 C 0,9 C 91 % 92 % 0 % 1020,8 hPa 0,0 l/m 0,0 km/h (0 Bft) N 0 0 min 0,0 UV-I -2,6 C -0,4 C 0,0 km/h (0 Bft)
29.10.2014 06:45 -1,3 C 21,7 C 0,5 C -0,4 C -0,4 C 0,9 C 91 % 92 % 0 % 1020,8 hPa 0,0 l/m 0,0 km/h (0 Bft) N-NW 337 0 min 0,0 UV-I -2,6 C -0,4 C 0,0 km/h (0 Bft)
29.10.2014 06:50 -1,3 C 21,7 C 0,5 C -0,4 C -0,4 C 0,9 C 91 % 92 % 0 % 1020,7 hPa 0,0 l/m 0,0 km/h (0 Bft) N-NW 337 0 min 0,0 UV-I -2,6 C -0,4 C 0,0 km/h (0 Bft)
29.10.2014 06:55 -1,3 C 21,6 C 0,5 C -0,4 C -0,4 C 0,9 C 91 % 92 % 0 % 1020,7 hPa 0,0 l/m 0,0 km/h (0 Bft) N-NW 337 0 min 0,0 UV-I -2,6 C -0,4 C 0,0 km/h (0 Bft)
29.10.2014 07:00 -1,3 C 21,7 C 0,7 C -0,2 C -0,2 C 1,1 C 91 % 92 % 0 % 1020,7 hPa 0,0 l/m 0,0 km/h (0 Bft) N-NW 337 0 min 0,0 UV-I -2,6 C -0,2 C 0,0 km/h (0 Bft)
29.10.2014 07:05 -1,3 C 21,7 C 0,8 C -0,1 C -0,1 C 1,2 C 91 % 92 % 0 % 1020,7 hPa 0,0 l/m 0,0 km/h (0 Bft) N-NW 337 0 min 0,0 UV-I -2,6 C -0,1 C 0,0 km/h (0 Bft)
29.10.2014 07:10 -1,2 C 21,7 C 1,1 C 0,0 C 0,0 C 1,2 C 91 % 92 % 32 % 1020,9 hPa 0,0 l/m 0,0 km/h (0 Bft) N-NW 337 5 min 0,0 UV-I -2,5 C 0,0 C 0,0 km/h (0 Bft)
29.10.2014 07:15 -1,1 C 21,6 C 1,1 C 0,0 C 0,0 C 1,1 C 91 % 92 % 29 % 1020,9 hPa 0,0 l/m 0,0 km/h (0 Bft) N-NW 337 5 min 0,0 UV-I -2,4 C 0,0 C 0,0 km/h (0 Bft)
29.10.2014 07:20 -0,9 C 21,6 C 1,2 C 0,1 C 0,1 C 1,0 C 91 % 92 % 26 % 1020,9 hPa 0,0 l/m 0,0 km/h (0 Bft) N-NW 337 5 min 0,0 UV-I -2,2 C 0,1 C 0,0 km/h (0 Bft)
29.10.2014 07:25 -0,9 C 21,6 C 1,2 C 0,1 C 0,1 C 1,0 C 91 % 92 % 26 % 1020,9 hPa 0,0 l/m 0,0 km/h (0 Bft) N-NW 337 5 min 0,0 UV-I -2,2 C 0,1 C 0,0 km/h (0 Bft)
29.10.2014 07:30 -1,0 C 21,6 C 1,2 C 0,1 C 0,1 C 1,1 C 91 % 92 % 29 % 1021,6 hPa 0,0 l/m 0,0 km/h (0 Bft) N-NW 337 5 min 0,0 UV-I -2,3 C 0,1 C 0,0 km/h (0 Bft)
29.10.2014 07:35 -1,0 C 21,6 C 1,2 C 0,1 C 0,1 C 1,1 C 91 % 92 % 29 % 1021,6 hPa 0,0 l/m 0,0 km/h (0 Bft) N-NW 337 5 min 0,0 UV-I -2,3 C 0,1 C 0,0 km/h (0 Bft)
29.10.2014 07:40 -1,0 C 21,6 C 1,2 C 0,2 C 0,2 C 1,2 C 91 % 92 % 32 % 1021,6 hPa 0,0 l/m 0,0 km/h (0 Bft) N-NW 337 5 min 0,0 UV-I -2,3 C 0,2 C 0,0 km/h (0 Bft)
29.10.2014 07:45 -1,0 C 21,6 C 1,4 C 0,2 C 0,2 C 1,2 C 91 % 92 % 32 % 1021,6 hPa 0,0 l/m 0,0 km/h (0 Bft) N-NW 337 5 min 0,0 UV-I -2,3 C 0,2 C 0,0 km/h (0 Bft)
29.10.2014 07:50 -1,1 C 21,6 C 1,4 C 0,3 C 0,3 C 1,4 C 91 % 92 % 37 % 1021,1 hPa 0,0 l/m 0,0 km/h (0 Bft) N-NW 337 5 min 0,0 UV-I -2,4 C 0,3 C 0,0 km/h (0 Bft)
29.10.2014 07:55 -0,8 C 21,6 C 1,5 C 0,4 C 0,4 C 1,2 C 91 % 92 % 32 % 1021,1 hPa 0,0 l/m 0,0 km/h (0 Bft) N-NW 337 0 min 0,0 UV-I -2,1 C 0,4 C 0,0 km/h (0 Bft)
29.10.2014 08:00 -0,8 C 21,6 C 1,6 C 0,6 C 0,6 C 1,4 C 91 % 92 % 37 % 1021,1 hPa 0,0 l/m 0,0 km/h (0 Bft) N-NW 337 5 min 0,0 UV-I -2,1 C 0,6 C 0,0 km/h (0 Bft)
29.10.2014 08:05 -0,8 C 21,6 C 1,7 C 0,8 C 0,8 C 1,6 C 91 % 92 % 42 % 1021,1 hPa 0,0 l/m 0,0 km/h (0 Bft) N-NW 337 5 min 0,0 UV-I -2,1 C 0,8 C 0,0 km/h (0 Bft)
29.10.2014 08:10 -0,8 C 21,6 C 2,0 C 1,3 C 1,3 C 2,1 C 91 % 92 % 55 % 1021,7 hPa 0,0 l/m 0,0 km/h (0 Bft) N-NW 337 5 min 0,0 UV-I -2,1 C 1,3 C 0,0 km/h (0 Bft)
29.10.2014 08:15 -0,8 C 21,6 C 2,1 C 1,6 C 1,6 C 2,4 C 91 % 92 % 63 % 1021,7 hPa 0,0 l/m 0,0 km/h (0 Bft) W 270 5 min 0,0 UV-I -2,1 C 1,6 C 0,0 km/h (0 Bft)
29.10.2014 08:20 -0,6 C 21,6 C 2,3 C 2,0 C 2,0 C 2,6 C 91 % 92 % 68 % 1021,7 hPa 0,0 l/m 0,0 km/h (0 Bft) W-SW 247 5 min 0,0 UV-I -1,9 C 2,0 C 0,0 km/h (0 Bft)
29.10.2014 08:25 -0,6 C 21,6 C 2,3 C 2,1 C 2,1 C 2,7 C 91 % 92 % 71 % 1021,7 hPa 0,0 l/m 0,0 km/h (0 Bft) NW 315 5 min 0,0 UV-I -1,9 C 2,1 C 0,0 km/h (0 Bft)
29.10.2014 08:30 -0,6 C 21,6 C 2,4 C 2,3 C 2,3 C 2,9 C 91 % 92 % 76 % 1020,9 hPa 0,0 l/m 0,0 km/h (0 Bft) W-SW 247 5 min 0,0 UV-I -1,9 C 2,3 C 0,0 km/h (0 Bft)
29.10.2014 08:35 -0,4 C 21,6 C 2,4 C 2,4 C 2,4 C 2,8 C 91 % 92 % 74 % 1020,9 hPa 0,0 l/m 0,0 km/h (0 Bft) SW 225 5 min 0,0 UV-I -1,7 C 2,4 C 0,0 km/h (0 Bft)
29.10.2014 08:40 -0,4 C 21,5 C 2,7 C 2,7 C 2,7 C 3,1 C 91 % 92 % 82 % 1020,9 hPa 0,0 l/m 0,0 km/h (0 Bft) W 270 5 min 0,0 UV-I -1,7 C 2,7 C 0,0 km/h (0 Bft)
29.10.2014 08:45 -0,3 C 21,5 C 2,7 C 2,9 C 2,9 C 3,2 C 91 % 92 % 84 % 1020,9 hPa 0,0 l/m 0,0 km/h (0 Bft) SW 225 5 min 0,0 UV-I -1,6 C 2,9 C 0,0 km/h (0 Bft)
29.10.2014 08:50 -0,3 C 21,5 C 2,9 C 3,0 C 3,0 C 3,3 C 91 % 92 % 87 % 1020,9 hPa 0,0 l/m 0,0 km/h (0 Bft) W 270 5 min 0,0 UV-I -1,6 C 3,0 C 0,0 km/h (0 Bft)
29.10.2014 08:55 -0,2 C 21,5 C 3,1 C 3,2 C 3,2 C 3,4 C 91 % 92 % 89 % 1020,9 hPa 0,0 l/m 0,0 km/h (0 Bft) NW 315 5 min 0,0 UV-I -1,5 C 3,2 C 0,0 km/h (0 Bft)
29.10.2014 09:00 -0,2 C 21,5 C 3,2 C 3,3 C 3,3 C 3,5 C 91 % 92 % 92 % 1020,9 hPa 0,0 l/m 0,6 km/h (0 Bft) W-NW 292 5 min 0,0 UV-I -1,5 C 3,3 C 0,0 km/h (0 Bft)
29.10.2014 09:05 -0,2 C 21,5 C 3,3 C 3,5 C 3,5 C 3,7 C 91 % 92 % 97 % 1020,9 hPa 0,0 l/m 0,6 km/h (0 Bft) W-SW 247 5 min 0,0 UV-I -1,5 C 3,5 C 2,9 km/h (1 Bft)
29.10.2014 09:10 -0,1 C 21,5 C 3,5 C 3,8 C 3,8 C 3,9 C 91 % 92 % 100 % 1020,9 hPa 0,0 l/m 0,0 km/h (0 Bft) SW 225 5 min 0,0 UV-I -1,4 C 3,8 C 0,0 km/h (0 Bft)
29.10.2014 09:15 -0,1 C 21,5 C 3,6 C 4,0 C 4,0 C 4,1 C 91 % 92 % 100 % 1020,9 hPa 0,0 l/m 0,0 km/h (0 Bft) W-SW 247 5 min 0,0 UV-I -1,4 C 4,0 C 0,0 km/h (0 Bft)
29.10.2014 09:20 0,0 C 21,4 C 3,9 C 4,4 C 4,4 C 4,4 C 91 % 92 % 100 % 1020,9 hPa 0,0 l/m 0,2 km/h (0 Bft) S 180 5 min 0,0 UV-I -1,3 C 4,4 C 0,0 km/h (0 Bft)
29.10.2014 09:25 0,0 C 21,4 C 4,1 C 4,6 C 4,6 C 4,6 C 91 % 92 % 100 % 1020,9 hPa 0,0 l/m 0,2 km/h (0 Bft) S 180 5 min 0,0 UV-I -1,3 C 4,6 C 0,0 km/h (0 Bft)
29.10.2014 09:30 0,1 C 21,4 C 4,4 C 5,1 C 5,1 C 5,0 C 91 % 92 % 100 % 1020,9 hPa 0,0 l/m 0,0 km/h (0 Bft) SW 225 5 min 0,0 UV-I -1,2 C 5,1 C 2,3 km/h (1 Bft)
29.10.2014 09:35 0,1 C 21,4 C 4,5 C 5,3 C 5,3 C 5,2 C 91 % 92 % 100 % 1020,9 hPa 0,0 l/m 0,3 km/h (0 Bft) O-SO 112 5 min 0,0 UV-I -1,2 C 5,3 C 0,0 km/h (0 Bft)
29.10.2014 09:42 0,2 C 21,3 C 4,8 C 5,6 C 5,6 C 5,4 C 91 % 92 % 100 % 1020,9 hPa 0,0 l/m 0,3 km/h (0 Bft) N 0 7 min 0,0 UV-I -1,1 C 5,6 C 0,0 km/h (0 Bft)
29.10.2014 09:45 0,5 C 21,2 C 4,9 C 5,8 C 5,8 C 5,3 C 91 % 92 % 100 % 1020,9 hPa 0,0 l/m 0,0 km/h (0 Bft) SW 225 3 min 0,0 UV-I -0,8 C 5,8 C 0,0 km/h (0 Bft)
29.10.2014 09:50 0,7 C 21,1 C 5,3 C 6,1 C 6,1 C 5,4 C 91 % 92 % 100 % 1021,0 hPa 0,0 l/m 0,0 km/h (0 Bft) SO 135 5 min 0,0 UV-I -0,6 C 6,1 C 0,0 km/h (0 Bft)
29.10.2014 09:55 0,9 C 21,1 C 5,5 C 6,3 C 6,3 C 5,4 C 91 % 92 % 100 % 1021,0 hPa 0,0 l/m 0,2 km/h (0 Bft) S 180 5 min 0,0 UV-I -0,4 C 6,3 C 0,0 km/h (0 Bft)
29.10.2014 10:00 0,9 C 21,1 C 5,9 C 6,7 C 6,7 C 5,8 C 91 % 92 % 100 % 1021,0 hPa 0,0 l/m 0,6 km/h (0 Bft) S-SW 202 5 min 0,0 UV-I -0,4 C 6,7 C 1,6 km/h (1 Bft)
29.10.2014 10:05 1,0 C 21,1 C 6,1 C 6,8 C 6,8 C 5,8 C 91 % 92 % 100 % 1021,0 hPa 0,0 l/m 1,0 km/h (0 Bft) NO 45 5 min 0,0 UV-I -0,3 C 6,8 C 10,0 km/h (2 Bft)
29.10.2014 10:10 1,5 C 21,1 C 6,4 C 7,0 C 7,0 C 5,5 C 91 % 92 % 100 % 1020,9 hPa 0,0 l/m 1,9 km/h (1 Bft) W-SW 247 5 min 0,0 UV-I 0,2 C 7,0 C 3,9 km/h (1 Bft)
29.10.2014 10:15 2,0 C 21,1 C 6,7 C 7,0 C 7,0 C 5,0 C 91 % 92 % 100 % 1020,9 hPa 0,0 l/m 2,4 km/h (1 Bft) SW 225 5 min 0,0 UV-I 0,7 C 7,0 C 11,1 km/h (2 Bft)
29.10.2014 10:20 2,9 C 21,1 C 6,8 C 7,2 C 7,2 C 4,3 C 91 % 92 % 100 % 1020,9 hPa 0,0 l/m 1,9 km/h (1 Bft) SO 135 5 min 0,0 UV-I 1,6 C 7,2 C 2,3 km/h (1 Bft)
29.10.2014 10:25 3,0 C 21,1 C 7,1 C 7,4 C 7,4 C 4,4 C 91 % 91 % 100 % 1020,9 hPa 0,0 l/m 1,8 km/h (1 Bft) SO 135 5 min 0,0 UV-I 1,7 C 7,4 C 2,6 km/h (1 Bft)
29.10.2014 10:30 4,0 C 21,1 C 7,4 C 7,9 C 7,9 C 3,9 C 91 % 91 % 100 % 1021,1 hPa 0,0 l/m 1,6 km/h (1 Bft) W-SW 247 5 min 0,0 UV-I 2,7 C 7,9 C 3,4 km/h (1 Bft)
29.10.2014 10:35 5,0 C 21,1 C 7,6 C 8,6 C 8,6 C 3,6 C 91 % 91 % 95 % 1021,1 hPa 0,0 l/m 1,8 km/h (1 Bft) W 270 5 min 0,0 UV-I 3,7 C 8,6 C 6,1 km/h (2 Bft)
29.10.2014 10:40 6,1 C 21,1 C 7,6 C 9,0 C 9,0 C 2,9 C 93 % 91 % 76 % 1021,1 hPa 0,0 l/m 3,5 km/h (1 Bft) W-SW 247 0 min 0,0 UV-I 5,1 C 9,0 C 6,1 km/h (2 Bft)
29.10.2014 10:45 6,3 C 21,1 C 7,6 C 8,7 C 8,7 C 2,4 C 92 % 91 % 63 % 1021,1 hPa 0,0 l/m 4,3 km/h (1 Bft) S 180 0 min 0,0 UV-I 5,1 C 8,7 C 12,2 km/h (2 Bft)
29.10.2014 10:50 6,4 C 21,1 C 7,5 C 8,7 C 8,7 C 2,3 C 92 % 90 % 61 % 1021,4 hPa 0,0 l/m 2,7 km/h (1 Bft) SW 225 0 min 0,0 UV-I 5,2 C 8,7 C 0,0 km/h (0 Bft)
29.10.2014 10:55 6,5 C 21,1 C 7,7 C 8,7 C 8,7 C 2,2 C 92 % 90 % 58 % 1021,4 hPa 0,0 l/m 1,9 km/h (1 Bft) SO 135 0 min 0,0 UV-I 5,3 C 8,7 C 1,6 km/h (1 Bft)
29.10.2014 11:00 6,7 C 21,1 C 7,9 C 9,1 C 9,1 C 2,4 C 91 % 90 % 63 % 1021,4 hPa 0,0 l/m 1,4 km/h (1 Bft) S-SO 157 0 min 0,0 UV-I 5,3 C 9,1 C 3,2 km/h (1 Bft)
29.10.2014 11:05 6,9 C 21,2 C 8,1 C 9,6 C 9,6 C 2,7 C 91 % 90 % 71 % 1021,4 hPa 0,0 l/m 1,6 km/h (1 Bft) O-NO 67 0 min 0,0 UV-I 5,5 C 9,6 C 1,9 km/h (1 Bft)
29.10.2014 11:10 7,2 C 21,2 C 8,4 C 10,7 C 10,7 C 3,5 C 90 % 89 % 92 % 1022,0 hPa 0,0 l/m 1,4 km/h (1 Bft) S-SO 157 5 min 0,0 UV-I 5,7 C 10,7 C 2,1 km/h (1 Bft)
29.10.2014 11:15 7,5 C 21,2 C 8,6 C 11,2 C 11,2 C 3,7 C 91 % 89 % 97 % 1022,0 hPa 0,0 l/m 1,0 km/h (0 Bft) SW 225 5 min 0,0 UV-I 6,1 C 11,2 C 0,0 km/h (0 Bft)
29.10.2014 11:20 7,6 C 21,2 C 8,6 C 11,4 C 11,4 C 3,8 C 89 % 88 % 100 % 1022,0 hPa 0,0 l/m 1,9 km/h (1 Bft) SW 225 5 min 0,0 UV-I 5,9 C 11,4 C 3,5 km/h (1 Bft)
29.10.2014 11:25 7,7 C 21,2 C 8,5 C 11,0 C 11,0 C 3,3 C 89 % 88 % 87 % 1022,0 hPa 0,0 l/m 2,4 km/h (1 Bft) S 180 5 min 0,0 UV-I 6,0 C 11,0 C 2,1 km/h (1 Bft)
29.10.2014 11:30 7,7 C 21,2 C 8,5 C 10,7 C 10,7 C 3,0 C 88 % 88 % 79 % 1021,2 hPa 0,0 l/m 1,1 km/h (1 Bft) NW 315 0 min 0,0 UV-I 5,8 C 10,7 C 0,0 km/h (0 Bft)
29.10.2014 11:35 7,8 C 21,2 C 8,8 C 11,6 C 11,6 C 3,8 C 88 % 88 % 100 % 1021,2 hPa 0,0 l/m 0,6 km/h (0 Bft) O-NO 67 5 min 0,0 UV-I 5,9 C 11,6 C 1,9 km/h (1 Bft)
29.10.2014 11:40 8,1 C 21,1 C 9,1 C 14,0 C 14,0 C 5,9 C 87 % 88 % 100 % 1021,2 hPa 0,0 l/m 1,4 km/h (1 Bft) N 360 5 min 0,0 UV-I 6,1 C 14,0 C 5,5 km/h (1 Bft)
29.10.2014 11:45 8,3 C 21,1 C 9,3 C 14,3 C 14,3 C 6,0 C 87 % 87 % 100 % 1021,2 hPa 0,0 l/m 1,6 km/h (1 Bft) S-SO 157 5 min 0,0 UV-I 6,3 C 14,3 C 1,9 km/h (1 Bft)
29.10.2014 11:50 8,4 C 21,1 C 9,7 C 14,9 C 14,9 C 6,5 C 86 % 87 % 100 % 1021,4 hPa 0,0 l/m 1,1 km/h (1 Bft) SO 135 5 min 0,0 UV-I 6,2 C 14,9 C 0,0 km/h (0 Bft)
29.10.2014 11:55 8,7 C 21,1 C 9,6 C 14,5 C 14,5 C 5,8 C 85 % 87 % 100 % 1021,4 hPa 0,0 l/m 0,6 km/h (0 Bft) N-NO 22 5 min 0,0 UV-I 6,3 C 14,5 C 1,8 km/h (1 Bft)
29.10.2014 12:00 8,8 C 21,1 C 9,5 C 14,0 C 14,0 C 5,2 C 84 % 86 % 100 % 1021,4 hPa 0,0 l/m 1,6 km/h (1 Bft) NO 45 5 min 0,0 UV-I 6,2 C 14,0 C 4,8 km/h (1 Bft)
29.10.2014 12:05 9,0 C 21,2 C 9,5 C 13,7 C 13,7 C 4,7 C 83 % 85 % 100 % 1021,4 hPa 0,0 l/m 2,7 km/h (1 Bft) W-SW 247 5 min 0,0 UV-I 6,3 C 13,7 C 4,0 km/h (1 Bft)
29.10.2014 12:10 9,2 C 21,2 C 9,7 C 14,0 C 14,0 C 4,8 C 82 % 85 % 100 % 1021,0 hPa 0,0 l/m 3,5 km/h (1 Bft) S 180 5 min 0,0 UV-I 6,3 C 14,0 C 5,1 km/h (1 Bft)
29.10.2014 12:15 9,5 C 21,2 C 9,9 C 13,9 C 13,9 C 4,4 C 82 % 85 % 100 % 1021,0 hPa 0,0 l/m 2,6 km/h (1 Bft) W-SW 247 5 min 0,0 UV-I 6,6 C 13,9 C 2,3 km/h (1 Bft)
29.10.2014 12:20 9,6 C 21,2 C 10,1 C 13,5 C 13,5 C 3,9 C 80 % 85 % 100 % 1021,0 hPa 0,0 l/m 2,3 km/h (1 Bft) W 270 5 min 0,0 UV-I 6,3 C 13,5 C 2,9 km/h (1 Bft)
29.10.2014 12:25 9,7 C 21,2 C 10,1 C 13,5 C 13,5 C 3,8 C 80 % 85 % 100 % 1021,0 hPa 0,0 l/m 2,4 km/h (1 Bft) W-SW 247 5 min 0,0 UV-I 6,4 C 13,5 C 2,9 km/h (1 Bft)
29.10.2014 12:30 10,1 C 21,2 C 10,5 C 14,1 C 14,1 C 4,0 C 80 % 84 % 100 % 1020,8 hPa 0,0 l/m 1,8 km/h (1 Bft) W-SW 247 5 min 0,0 UV-I 6,8 C 14,1 C 1,8 km/h (1 Bft)
29.10.2014 12:35 10,2 C 21,2 C 10,6 C 14,1 C 14,1 C 3,9 C 79 % 84 % 100 % 1020,8 hPa 0,0 l/m 1,8 km/h (1 Bft) W-SW 247 5 min 0,0 UV-I 6,7 C 14,1 C 2,4 km/h (1 Bft)
29.10.2014 12:42 10,3 C 21,2 C 10,4 C 13,7 C 13,7 C 3,4 C 78 % 83 % 89 % 1020,8 hPa 0,0 l/m 2,6 km/h (1 Bft) N 0 7 min 0,0 UV-I 6,6 C 13,7 C 2,4 km/h (1 Bft)
29.10.2014 12:45 10,3 C 21,2 C 10,2 C 13,3 C 13,3 C 3,0 C 77 % 82 % 79 % 1020,8 hPa 0,0 l/m 2,9 km/h (1 Bft) W-SW 247 0 min 0,0 UV-I 6,4 C 13,3 C 4,5 km/h (1 Bft)
29.10.2014 12:50 10,3 C 21,2 C 10,1 C 13,1 C 13,1 C 2,8 C 77 % 82 % 74 % 1020,9 hPa 0,0 l/m 2,7 km/h (1 Bft) SW 225 0 min 0,0 UV-I 6,4 C 13,1 C 2,1 km/h (1 Bft)
29.10.2014 12:55 10,3 C 21,2 C 10,1 C 12,8 C 12,8 C 2,5 C 77 % 82 % 66 % 1020,9 hPa 0,0 l/m 2,6 km/h (1 Bft) SW 225 0 min 0,0 UV-I 6,4 C 12,8 C 2,7 km/h (1 Bft)
29.10.2014 13:00 10,3 C 21,2 C 10,1 C 12,8 C 12,8 C 2,5 C 77 % 82 % 66 % 1020,9 hPa 0,0 l/m 1,8 km/h (1 Bft) W-SW 247 0 min 0,0 UV-I 6,4 C 12,8 C 2,6 km/h (1 Bft)
29.10.2014 13:05 10,4 C 21,3 C 10,3 C 12,8 C 12,8 C 2,4 C 77 % 83 % 63 % 1020,9 hPa 0,0 l/m 2,1 km/h (1 Bft) W 270 0 min 0,0 UV-I 6,5 C 12,8 C 4,0 km/h (1 Bft)
29.10.2014 13:10 10,4 C 21,3 C 10,1 C 12,6 C 12,6 C 2,2 C 76 % 82 % 58 % 1020,8 hPa 0,0 l/m 2,7 km/h (1 Bft) W-SW 247 0 min 0,0 UV-I 6,4 C 12,6 C 1,9 km/h (1 Bft)
29.10.2014 13:15 10,5 C 21,3 C 10,0 C 12,4 C 12,4 C 1,9 C 76 % 82 % 50 % 1020,8 hPa 0,0 l/m 2,6 km/h (1 Bft) W-SW 247 0 min 0,0 UV-I 6,5 C 12,4 C 4,0 km/h (1 Bft)
29.10.2014 13:20 10,4 C 21,3 C 9,9 C 12,0 C 12,0 C 1,6 C 76 % 82 % 42 % 1020,8 hPa 0,0 l/m 2,1 km/h (1 Bft) SW 225 0 min 0,0 UV-I 6,4 C 12,0 C 3,1 km/h (1 Bft)
29.10.2014 13:25 10,5 C 21,3 C 9,9 C 12,0 C 12,0 C 1,5 C 76 % 83 % 39 % 1020,8 hPa 0,0 l/m 2,1 km/h (1 Bft) W-SW 247 0 min 0,0 UV-I 6,5 C 12,0 C 2,6 km/h (1 Bft)
29.10.2014 13:30 10,4 C 21,3 C 10,1 C 12,2 C 12,2 C 1,8 C 76 % 83 % 47 % 1020,7 hPa 0,0 l/m 2,3 km/h (1 Bft) W-SW 247 0 min 0,0 UV-I 6,4 C 12,2 C 3,2 km/h (1 Bft)
29.10.2014 13:35 10,5 C 21,3 C 10,1 C 12,4 C 12,4 C 1,9 C 76 % 83 % 50 % 1020,7 hPa 0,0 l/m 2,1 km/h (1 Bft) SW 225 0 min 0,0 UV-I 6,5 C 12,4 C 2,4 km/h (1 Bft)
29.10.2014 13:40 10,5 C 21,3 C 9,9 C 11,9 C 11,9 C 1,4 C 75 % 82 % 37 % 1020,7 hPa 0,0 l/m 2,3 km/h (1 Bft) SW 225 0 min 0,0 UV-I 6,3 C 11,9 C 0,0 km/h (0 Bft)
29.10.2014 13:45 10,5 C 21,3 C 9,9 C 11,7 C 11,7 C 1,2 C 75 % 83 % 32 % 1020,7 hPa 0,0 l/m 1,9 km/h (1 Bft) S 180 0 min 0,0 UV-I 6,3 C 11,7 C 2,1 km/h (1 Bft)
29.10.2014 13:50 10,7 C 21,4 C 10,1 C 11,7 C 11,7 C 1,0 C 75 % 83 % 26 % 1021,3 hPa 0,0 l/m 1,9 km/h (1 Bft) W-SW 247 0 min 0,0 UV-I 6,5 C 11,7 C 4,3 km/h (1 Bft)
29.10.2014 13:55 10,7 C 21,4 C 10,3 C 11,7 C 11,7 C 1,0 C 75 % 83 % 26 % 1021,3 hPa 0,0 l/m 2,4 km/h (1 Bft) W 270 0 min 0,0 UV-I 6,5 C 11,7 C 3,2 km/h (1 Bft)
29.10.2014 14:00 10,9 C 21,4 C 10,3 C 11,8 C 11,8 C 0,9 C 75 % 83 % 24 % 1021,3 hPa 0,0 l/m 2,4 km/h (1 Bft) W 270 0 min 0,0 UV-I 6,6 C 11,8 C 5,3 km/h (1 Bft)
29.10.2014 14:05 11,1 C 21,4 C 10,3 C 11,8 C 11,8 C 0,7 C 75 % 82 % 18 % 1021,3 hPa 0,0 l/m 2,4 km/h (1 Bft) S-SW 202 0 min 0,0 UV-I 6,8 C 11,8 C 2,3 km/h (1 Bft)
29.10.2014 14:10 11,3 C 21,4 C 10,4 C 11,9 C 11,9 C 0,6 C 75 % 82 % 16 % 1020,4 hPa 0,0 l/m 2,3 km/h (1 Bft) W 270 0 min 0,0 UV-I 7,0 C 11,9 C 2,3 km/h (1 Bft)
29.10.2014 14:15 11,4 C 21,4 C 10,4 C 11,9 C 11,9 C 0,5 C 74 % 82 % 13 % 1020,4 hPa 0,0 l/m 1,4 km/h (1 Bft) SW 225 0 min 0,0 UV-I 6,9 C 11,9 C 5,8 km/h (2 Bft)
29.10.2014 14:20 11,3 C 21,4 C 10,1 C 11,6 C 11,6 C 0,3 C 73 % 82 % 8 % 1020,4 hPa 0,0 l/m 1,4 km/h (1 Bft) W 270 0 min 0,0 UV-I 6,6 C 11,6 C 2,6 km/h (1 Bft)
29.10.2014 14:25 11,3 C 21,4 C 10,2 C 11,4 C 11,4 C 0,1 C 74 % 82 % 3 % 1020,4 hPa 0,0 l/m 2,1 km/h (1 Bft) S-SW 202 0 min 0,0 UV-I 6,8 C 11,4 C 5,6 km/h (1 Bft)
29.10.2014 14:30 11,2 C 21,4 C 10,3 C 11,5 C 11,5 C 0,3 C 74 % 82 % 8 % 1021,5 hPa 0,0 l/m 1,8 km/h (1 Bft) S 180 0 min 0,0 UV-I 6,7 C 11,5 C 1,6 km/h (1 Bft)
29.10.2014 14:35 11,5 C 21,5 C 10,4 C 11,6 C 11,6 C 0,1 C 74 % 83 % 3 % 1021,5 hPa 0,0 l/m 1,4 km/h (1 Bft) W 270 0 min 0,0 UV-I 7,0 C 11,6 C 0,0 km/h (0 Bft)
29.10.2014 14:40 11,6 C 21,5 C 10,4 C 11,8 C 11,8 C 0,2 C 74 % 83 % 5 % 1021,5 hPa 0,0 l/m 0,6 km/h (0 Bft) SW 225 0 min 0,0 UV-I 7,1 C 11,8 C 4,2 km/h (1 Bft)
29.10.2014 14:45 12,3 C 21,5 C 10,5 C 12,3 C 12,2 C 0,0 C 73 % 83 % 0 % 1021,5 hPa 0,0 l/m 1,0 km/h (0 Bft) W 270 0 min 0,0 UV-I 7,6 C 12,2 C 2,9 km/h (1 Bft)
29.10.2014 14:50 12,4 C 21,5 C 10,5 C 13,6 C 13,6 C 1,2 C 72 % 82 % 32 % 1020,5 hPa 0,0 l/m 1,6 km/h (1 Bft) SW 225 0 min 0,0 UV-I 7,5 C 13,6 C 1,8 km/h (1 Bft)
29.10.2014 14:55 12,5 C 21,5 C 10,4 C 14,4 C 14,4 C 1,9 C 71 % 82 % 50 % 1020,5 hPa 0,0 l/m 1,4 km/h (1 Bft) S-SW 202 0 min 0,0 UV-I 7,4 C 14,4 C 2,6 km/h (1 Bft)
29.10.2014 15:00 12,3 C 21,5 C 10,4 C 14,9 C 14,9 C 2,6 C 71 % 82 % 68 % 1020,5 hPa 0,0 l/m 1,4 km/h (1 Bft) SW 225 0 min 0,0 UV-I 7,2 C 14,9 C 2,3 km/h (1 Bft)
29.10.2014 15:05 12,1 C 21,5 C 10,4 C 15,3 C 15,3 C 3,2 C 71 % 82 % 84 % 1020,5 hPa 0,0 l/m 1,1 km/h (1 Bft) NW 315 0 min 0,0 UV-I 7,0 C 15,3 C 0,0 km/h (0 Bft)
29.10.2014 15:10 11,9 C 21,5 C 10,3 C 15,7 C 15,7 C 3,8 C 71 % 82 % 100 % 1020,8 hPa 0,0 l/m 0,5 km/h (0 Bft) W-SW 247 5 min 0,0 UV-I 6,8 C 15,7 C 0,0 km/h (0 Bft)
29.10.2014 15:15 11,8 C 21,6 C 10,3 C 15,9 C 15,9 C 4,1 C 71 % 82 % 100 % 1020,8 hPa 0,0 l/m 0,3 km/h (0 Bft) S 180 5 min 0,0 UV-I 6,7 C 15,9 C 0,0 km/h (0 Bft)
29.10.2014 15:20 11,8 C 21,6 C 10,3 C 15,9 C 15,9 C 4,1 C 71 % 82 % 100 % 1020,8 hPa 0,0 l/m 0,3 km/h (0 Bft) W 270 5 min 0,0 UV-I 6,7 C 15,9 C 3,2 km/h (1 Bft)
29.10.2014 15:25 11,6 C 21,6 C 10,2 C 15,7 C 15,7 C 4,1 C 72 % 82 % 100 % 1020,8 hPa 0,0 l/m 0,5 km/h (0 Bft) W-SW 247 5 min 0,0 UV-I 6,7 C 15,7 C 1,8 km/h (1 Bft)
29.10.2014 15:30 11,5 C 21,6 C 10,0 C 15,4 C 15,4 C 3,9 C 72 % 82 % 100 % 1020,8 hPa 0,0 l/m 0,5 km/h (0 Bft) S 180 5 min 0,0 UV-I 6,6 C 15,4 C 0,0 km/h (0 Bft)
29.10.2014 15:35 11,4 C 21,6 C 10,0 C 15,3 C 15,3 C 3,9 C 72 % 82 % 100 % 1020,8 hPa 0,0 l/m 0,2 km/h (0 Bft) S 180 5 min 0,0 UV-I 6,5 C 15,3 C 0,0 km/h (0 Bft)
29.10.2014 15:42 11,2 C 21,6 C 9,9 C 15,3 C 15,3 C 4,1 C 73 % 83 % 100 % 1020,8 hPa 0,0 l/m 0,0 km/h (0 Bft) N 0 7 min 0,0 UV-I 6,5 C 15,3 C 0,0 km/h (0 Bft)
29.10.2014 15:45 11,1 C 21,6 C 9,9 C 15,1 C 15,1 C 4,0 C 73 % 83 % 100 % 1020,8 hPa 0,0 l/m 0,2 km/h (0 Bft) SW 225 3 min 0,0 UV-I 6,4 C 15,1 C 2,1 km/h (1 Bft)
29.10.2014 15:50 11,1 C 21,6 C 9,9 C 14,6 C 14,6 C 3,5 C 73 % 83 % 92 % 1020,5 hPa 0,0 l/m 0,5 km/h (0 Bft) S-SW 202 5 min 0,0 UV-I 6,4 C 14,6 C 0,0 km/h (0 Bft)
29.10.2014 15:55 11,0 C 21,6 C 9,6 C 14,2 C 14,2 C 3,2 C 74 % 83 % 84 % 1020,5 hPa 0,0 l/m 0,3 km/h (0 Bft) NW 315 5 min 0,0 UV-I 6,5 C 14,2 C 0,0 km/h (0 Bft)
29.10.2014 16:00 10,9 C 21,6 C 9,4 C 13,8 C 13,8 C 2,9 C 74 % 83 % 76 % 1020,5 hPa 0,0 l/m 0,0 km/h (0 Bft) W-SW 247 5 min 0,0 UV-I 6,5 C 13,8 C 0,0 km/h (0 Bft)
29.10.2014 16:05 10,8 C 21,6 C 9,4 C 13,4 C 13,4 C 2,6 C 74 % 84 % 68 % 1020,5 hPa 0,0 l/m 0,0 km/h (0 Bft) W-NW 292 5 min 0,0 UV-I 6,4 C 13,4 C 0,0 km/h (0 Bft)
29.10.2014 16:10 10,7 C 21,6 C 9,2 C 12,8 C 12,8 C 2,1 C 75 % 84 % 55 % 1020,8 hPa 0,0 l/m 0,0 km/h (0 Bft) W 270 5 min 0,0 UV-I 6,5 C 12,8 C 0,0 km/h (0 Bft)
29.10.2014 16:15 10,5 C 21,6 C 9,1 C 12,2 C 12,2 C 1,7 C 75 % 84 % 45 % 1020,8 hPa 0,0 l/m 0,0 km/h (0 Bft) W 270 5 min 0,0 UV-I 6,3 C 12,2 C 0,0 km/h (0 Bft)
29.10.2014 16:20 10,1 C 21,7 C 8,7 C 11,3 C 11,3 C 1,2 C 75 % 84 % 32 % 1020,8 hPa 0,0 l/m 0,0 km/h (0 Bft) O-NO 67 5 min 0,0 UV-I 5,9 C 11,3 C 0,0 km/h (0 Bft)
29.10.2014 16:25 9,9 C 21,7 C 8,7 C 10,6 C 10,6 C 0,7 C 76 % 85 % 18 % 1020,8 hPa 0,0 l/m 0,0 km/h (0 Bft) O-NO 67 5 min 0,0 UV-I 5,9 C 10,6 C 0,0 km/h (0 Bft)
29.10.2014 16:30 9,7 C 21,7 C 8,4 C 9,7 C 9,6 C 0,0 C 77 % 85 % 0 % 1020,4 hPa 0,0 l/m 0,0 km/h (0 Bft) O-NO 67 0 min 0,0 UV-I 5,9 C 9,6 C 0,0 km/h (0 Bft)
29.10.2014 16:35 9,5 C 21,8 C 8,1 C 9,3 C 9,0 C 0,0 C 77 % 85 % 0 % 1020,4 hPa 0,0 l/m 0,0 km/h (0 Bft) O-NO 67 0 min 0,0 UV-I 5,7 C 9,0 C 0,0 km/h (0 Bft)
29.10.2014 16:40 9,1 C 21,8 C 7,9 C 8,8 C 8,2 C 0,0 C 78 % 86 % 0 % 1020,4 hPa 0,0 l/m 0,0 km/h (0 Bft) O-NO 67 0 min 0,0 UV-I 5,5 C 8,2 C 0,0 km/h (0 Bft)
29.10.2014 16:45 8,9 C 21,8 C 7,6 C 8,5 C 7,7 C 0,0 C 77 % 86 % 0 % 1020,4 hPa 0,0 l/m 0,0 km/h (0 Bft) O-NO 67 0 min 0,0 UV-I 5,1 C 7,7 C 0,0 km/h (0 Bft)
29.10.2014 16:50 8,5 C 21,8 C 7,3 C 8,1 C 7,3 C 0,0 C 79 % 86 % 0 % 1020,7 hPa 0,0 l/m 0,0 km/h (0 Bft) O-NO 67 0 min 0,0 UV-I 5,1 C 7,3 C 0,0 km/h (0 Bft)
29.10.2014 16:55 8,4 C 21,8 C 7,2 C 7,9 C 7,0 C 0,0 C 79 % 86 % 0 % 1020,7 hPa 0,0 l/m 0,0 km/h (0 Bft) O-NO 67 0 min 0,0 UV-I 5,0 C 7,0 C 0,0 km/h (0 Bft)
29.10.2014 17:00 8,1 C 21,8 C 7,0 C 7,5 C 6,4 C 0,0 C 79 % 87 % 0 % 1020,7 hPa 0,0 l/m 0,0 km/h (0 Bft) SW 225 0 min 0,0 UV-I 4,7 C 6,4 C 0,0 km/h (0 Bft)
29.10.2014 17:05 7,9 C 21,9 C 7,0 C 7,4 C 6,3 C 0,0 C 80 % 87 % 0 % 1020,7 hPa 0,0 l/m 0,0 km/h (0 Bft) S 180 0 min 0,0 UV-I 4,7 C 6,3 C 0,0 km/h (0 Bft)
29.10.2014 17:10 7,7 C 21,9 C 6,8 C 7,2 C 6,1 C 0,0 C 80 % 88 % 0 % 1020,3 hPa 0,0 l/m 0,0 km/h (0 Bft) S 180 0 min 0,0 UV-I 4,5 C 6,1 C 0,0 km/h (0 Bft)
29.10.2014 17:15 7,5 C 21,9 C 6,8 C 7,0 C 6,1 C 0,0 C 80 % 88 % 0 % 1020,3 hPa 0,0 l/m 0,0 km/h (0 Bft) SW 225 0 min 0,0 UV-I 4,3 C 6,1 C 0,0 km/h (0 Bft)
29.10.2014 17:20 7,3 C 22,0 C 6,9 C 6,9 C 6,2 C 0,0 C 81 % 88 % 0 % 1020,3 hPa 0,0 l/m 0,0 km/h (0 Bft) SW 225 0 min 0,0 UV-I 4,3 C 6,2 C 0,0 km/h (0 Bft)
29.10.2014 17:25 7,3 C 22,0 C 6,7 C 7,0 C 6,3 C 0,0 C 82 % 88 % 0 % 1020,3 hPa 0,0 l/m 0,0 km/h (0 Bft) O-NO 67 0 min 0,0 UV-I 4,4 C 6,3 C 0,0 km/h (0 Bft)
29.10.2014 17:30 7,1 C 22,0 C 6,7 C 6,8 C 6,3 C 0,0 C 83 % 88 % 0 % 1021,0 hPa 0,0 l/m 0,0 km/h (0 Bft) O-NO 67 0 min 0,0 UV-I 4,4 C 6,3 C 0,0 km/h (0 Bft)
29.10.2014 17:35 6,9 C 22,0 C 6,4 C 6,7 C 6,2 C 0,0 C 83 % 88 % 0 % 1021,0 hPa 0,0 l/m 0,0 km/h (0 Bft) O-NO 67 0 min 0,0 UV-I 4,2 C 6,2 C 0,0 km/h (0 Bft)
29.10.2014 17:40 6,8 C 22,0 C 6,4 C 6,5 C 5,9 C 0,0 C 83 % 89 % 0 % 1021,0 hPa 0,0 l/m 0,0 km/h (0 Bft) NW 315 0 min 0,0 UV-I 4,1 C 5,9 C 0,0 km/h (0 Bft)
29.10.2014 17:45 6,7 C 22,0 C 6,3 C 6,4 C 5,7 C 0,0 C 83 % 89 % 0 % 1021,0 hPa 0,0 l/m 0,0 km/h (0 Bft) O-NO 67 0 min 0,0 UV-I 4,0 C 5,7 C 0,0 km/h (0 Bft)
29.10.2014 17:50 6,4 C 22,0 C 6,0 C 6,1 C 5,4 C 0,0 C 83 % 89 % 0 % 1021,9 hPa 0,0 l/m 0,0 km/h (0 Bft) O-SO 112 0 min 0,0 UV-I 3,7 C 5,4 C 0,0 km/h (0 Bft)
29.10.2014 17:55 6,3 C 22,1 C 6,0 C 5,9 C 5,2 C 0,0 C 83 % 89 % 0 % 1021,9 hPa 0,0 l/m 0,0 km/h (0 Bft) W-NW 292 0 min 0,0 UV-I 3,6 C 5,2 C 0,0 km/h (0 Bft)
29.10.2014 18:00 6,0 C 22,2 C 5,8 C 5,7 C 5,0 C 0,0 C 84 % 89 % 0 % 1021,9 hPa 0,0 l/m 0,0 km/h (0 Bft) O-NO 67 0 min 0,0 UV-I 3,5 C 5,0 C 0,0 km/h (0 Bft)
29.10.2014 18:05 5,9 C 22,2 C 5,6 C 5,6 C 4,9 C 0,0 C 84 % 89 % 0 % 1021,9 hPa 0,0 l/m 0,0 km/h (0 Bft) O-NO 67 0 min 0,0 UV-I 3,4 C 4,9 C 0,0 km/h (0 Bft)
29.10.2014 18:10 5,7 C 22,2 C 5,6 C 5,3 C 4,5 C 0,0 C 84 % 89 % 0 % 1021,8 hPa 0,0 l/m 0,0 km/h (0 Bft) O-NO 67 0 min 0,0 UV-I 3,2 C 4,5 C 0,0 km/h (0 Bft)
29.10.2014 18:15 5,5 C 22,2 C 5,3 C 5,2 C 4,5 C 0,0 C 84 % 89 % 0 % 1021,8 hPa 0,0 l/m 0,0 km/h (0 Bft) O-NO 67 0 min 0,0 UV-I 3,0 C 4,5 C 0,0 km/h (0 Bft)
29.10.2014 18:20 5,3 C 22,2 C 5,2 C 5,0 C 4,4 C 0,0 C 84 % 89 % 0 % 1021,8 hPa 0,0 l/m 0,0 km/h (0 Bft) O-NO 67 0 min 0,0 UV-I 2,8 C 4,4 C 0,0 km/h (0 Bft)
29.10.2014 18:25 5,2 C 22,2 C 5,1 C 4,8 C 4,1 C 0,0 C 84 % 89 % 0 % 1021,8 hPa 0,0 l/m 0,0 km/h (0 Bft) O-NO 67 0 min 0,0 UV-I 2,7 C 4,1 C 0,0 km/h (0 Bft)
29.10.2014 18:30 5,1 C 22,2 C 5,1 C 4,7 C 3,9 C 0,0 C 84 % 89 % 0 % 1021,7 hPa 0,0 l/m 0,0 km/h (0 Bft) O-NO 67 0 min 0,0 UV-I 2,6 C 3,9 C 0,0 km/h (0 Bft)
29.10.2014 18:35 4,8 C 22,2 C 4,9 C 4,5 C 3,9 C 0,0 C 85 % 89 % 0 % 1021,7 hPa 0,0 l/m 0,0 km/h (0 Bft) O-NO 67 0 min 0,0 UV-I 2,5 C 3,9 C 0,0 km/h (0 Bft)
29.10.2014 18:42 4,7 C 22,3 C 4,7 C 4,4 C 3,8 C 0,0 C 85 % 89 % 0 % 1021,7 hPa 0,0 l/m 0,0 km/h (0 Bft) N 0 0 min 0,0 UV-I 2,4 C 3,8 C 0,0 km/h (0 Bft)
29.10.2014 18:45 4,5 C 22,3 C 4,7 C 4,2 C 3,7 C 0,0 C 85 % 90 % 0 % 1021,7 hPa 0,0 l/m 0,0 km/h (0 Bft) O-NO 67 0 min 0,0 UV-I 2,2 C 3,7 C 0,0 km/h (0 Bft)
29.10.2014 18:50 4,3 C 22,2 C 4,4 C 4,1 C 3,6 C 0,0 C 85 % 90 % 0 % 1022,0 hPa 0,0 l/m 0,0 km/h (0 Bft) O-NO 67 0 min 0,0 UV-I 2,0 C 3,6 C 0,0 km/h (0 Bft)
29.10.2014 18:55 4,2 C 22,3 C 4,4 C 3,9 C 3,4 C 0,0 C 85 % 90 % 0 % 1022,0 hPa 0,0 l/m 0,0 km/h (0 Bft) O-NO 67 0 min 0,0 UV-I 1,9 C 3,4 C 0,0 km/h (0 Bft)
29.10.2014 19:00 4,0 C 22,3 C 4,3 C 3,8 C 3,3 C 0,0 C 85 % 90 % 0 % 1022,0 hPa 0,0 l/m 0,0 km/h (0 Bft) O-NO 67 0 min 0,0 UV-I 1,7 C 3,3 C 0,0 km/h (0 Bft)
29.10.2014 19:05 3,9 C 22,2 C 4,3 C 3,7 C 3,3 C 0,0 C 85 % 90 % 0 % 1022,0 hPa 0,0 l/m 0,0 km/h (0 Bft) O-NO 67 0 min 0,0 UV-I 1,6 C 3,3 C 0,0 km/h (0 Bft)
29.10.2014 19:10 3,7 C 22,2 C 4,3 C 3,5 C 3,2 C 0,0 C 85 % 90 % 0 % 1021,9 hPa 0,0 l/m 0,0 km/h (0 Bft) O-NO 67 0 min 0,0 UV-I 1,4 C 3,2 C 0,0 km/h (0 Bft)
29.10.2014 19:15 3,7 C 22,2 C 4,3 C 3,5 C 3,0 C 0,0 C 85 % 90 % 0 % 1021,9 hPa 0,0 l/m 0,0 km/h (0 Bft) O-NO 67 0 min 0,0 UV-I 1,4 C 3,0 C 0,0 km/h (0 Bft)
29.10.2014 19:20 3,5 C 22,3 C 4,2 C 3,3 C 2,8 C 0,0 C 86 % 90 % 0 % 1021,9 hPa 0,0 l/m 0,0 km/h (0 Bft) O-NO 67 0 min 0,0 UV-I 1,4 C 2,8 C 0,0 km/h (0 Bft)
29.10.2014 19:25 3,3 C 22,3 C 4,1 C 3,1 C 2,8 C 0,0 C 86 % 90 % 0 % 1021,9 hPa 0,0 l/m 0,0 km/h (0 Bft) O-NO 67 0 min 0,0 UV-I 1,2 C 2,8 C 0,0 km/h (0 Bft)
29.10.2014 19:30 3,2 C 22,3 C 3,9 C 3,1 C 2,8 C 0,0 C 86 % 90 % 0 % 1022,2 hPa 0,0 l/m 0,0 km/h (0 Bft) O-NO 67 0 min 0,0 UV-I 1,1 C 2,8 C 0,0 km/h (0 Bft)
29.10.2014 19:35 3,1 C 22,3 C 3,9 C 3,0 C 2,9 C 0,0 C 86 % 90 % 0 % 1022,2 hPa 0,0 l/m 0,0 km/h (0 Bft) O-NO 67 0 min 0,0 UV-I 1,0 C 2,9 C 0,0 km/h (0 Bft)
29.10.2014 19:40 3,1 C 22,3 C 4,0 C 3,1 C 3,1 C 0,0 C 87 % 90 % 0 % 1022,2 hPa 0,0 l/m 0,0 km/h (0 Bft) O-NO 67 0 min 0,0 UV-I 1,2 C 3,1 C 0,0 km/h (0 Bft)
29.10.2014 19:45 3,1 C 22,3 C 4,1 C 3,3 C 3,3 C 0,2 C 87 % 90 % 0 % 1022,2 hPa 0,0 l/m 0,0 km/h (0 Bft) O-NO 67 0 min 0,0 UV-I 1,2 C 3,3 C 0,0 km/h (0 Bft)
29.10.2014 19:50 2,9 C 22,4 C 4,1 C 3,3 C 3,3 C 0,4 C 87 % 90 % 0 % 1022,4 hPa 0,0 l/m 0,0 km/h (0 Bft) O-NO 67 0 min 0,0 UV-I 1,0 C 3,3 C 0,0 km/h (0 Bft)
29.10.2014 19:55 2,9 C 22,4 C 4,0 C 3,3 C 3,3 C 0,4 C 87 % 90 % 0 % 1022,4 hPa 0,0 l/m 0,0 km/h (0 Bft) O-NO 67 0 min 0,0 UV-I 1,0 C 3,3 C 0,0 km/h (0 Bft)
29.10.2014 20:00 2,9 C 22,4 C 4,0 C 3,3 C 3,3 C 0,4 C 87 % 91 % 0 % 1022,4 hPa 0,0 l/m 0,0 km/h (0 Bft) O-NO 67 0 min 0,0 UV-I 1,0 C 3,3 C 0,0 km/h (0 Bft)
29.10.2014 20:05 2,9 C 22,4 C 4,0 C 3,4 C 3,4 C 0,5 C 87 % 91 % 0 % 1022,4 hPa 0,0 l/m 0,0 km/h (0 Bft) O-NO 67 0 min 0,0 UV-I 1,0 C 3,4 C 0,0 km/h (0 Bft)
29.10.2014 20:10 2,8 C 22,4 C 3,9 C 3,4 C 3,4 C 0,6 C 87 % 91 % 0 % 1023,3 hPa 0,0 l/m 0,0 km/h (0 Bft) O-NO 67 0 min 0,0 UV-I 0,9 C 3,4 C 0,0 km/h (0 Bft)
29.10.2014 20:15 2,9 C 22,4 C 3,9 C 3,3 C 3,3 C 0,4 C 87 % 91 % 0 % 1023,3 hPa 0,0 l/m 0,0 km/h (0 Bft) O-NO 67 0 min 0,0 UV-I 1,0 C 3,3 C 0,0 km/h (0 Bft)
29.10.2014 20:20 2,7 C 22,4 C 3,9 C 3,2 C 3,2 C 0,5 C 87 % 91 % 0 % 1023,3 hPa 0,0 l/m 0,0 km/h (0 Bft) O-NO 67 0 min 0,0 UV-I 0,8 C 3,2 C 0,0 km/h (0 Bft)
29.10.2014 20:25 2,7 C 22,3 C 3,9 C 3,2 C 3,2 C 0,5 C 88 % 91 % 0 % 1023,3 hPa 0,0 l/m 0,0 km/h (0 Bft) O-NO 67 0 min 0,0 UV-I 0,9 C 3,2 C 0,0 km/h (0 Bft)
29.10.2014 20:30 2,8 C 22,4 C 4,0 C 3,2 C 3,2 C 0,4 C 88 % 91 % 0 % 1023,4 hPa 0,0 l/m 0,0 km/h (0 Bft) O-NO 67 0 min 0,0 UV-I 1,0 C 3,2 C 0,0 km/h (0 Bft)
29.10.2014 20:35 2,8 C 22,4 C 3,9 C 3,3 C 3,3 C 0,5 C 88 % 91 % 0 % 1023,4 hPa 0,0 l/m 0,0 km/h (0 Bft) O-NO 67 0 min 0,0 UV-I 1,0 C 3,3 C 0,0 km/h (0 Bft)
29.10.2014 20:40 3,0 C 22,4 C 4,0 C 3,5 C 3,5 C 0,5 C 88 % 91 % 0 % 1023,4 hPa 0,0 l/m 0,0 km/h (0 Bft) NO 45 0 min 0,0 UV-I 1,2 C 3,5 C 0,0 km/h (0 Bft)
29.10.2014 20:45 2,9 C 22,4 C 3,9 C 3,5 C 3,5 C 0,6 C 88 % 91 % 0 % 1023,4 hPa 0,0 l/m 0,0 km/h (0 Bft) O-NO 67 0 min 0,0 UV-I 1,1 C 3,5 C 0,0 km/h (0 Bft)
29.10.2014 20:50 2,8 C 22,4 C 3,8 C 3,5 C 3,5 C 0,7 C 88 % 91 % 0 % 1023,2 hPa 0,0 l/m 0,0 km/h (0 Bft) O-NO 67 0 min 0,0 UV-I 1,0 C 3,5 C 0,0 km/h (0 Bft)
29.10.2014 20:55 2,9 C 22,4 C 3,9 C 3,6 C 3,6 C 0,7 C 88 % 91 % 0 % 1023,2 hPa 0,0 l/m 0,0 km/h (0 Bft) O-NO 67 0 min 0,0 UV-I 1,1 C 3,6 C 0,0 km/h (0 Bft)
29.10.2014 21:00 2,8 C 22,4 C 4,3 C 3,6 C 3,6 C 0,8 C 89 % 91 % 0 % 1023,2 hPa 0,0 l/m 0,0 km/h (0 Bft) O-SO 112 0 min 0,0 UV-I 1,2 C 3,6 C 0,0 km/h (0 Bft)
29.10.2014 21:05 2,9 C 22,4 C 4,3 C 3,9 C 3,9 C 1,0 C 89 % 91 % 0 % 1023,2 hPa 0,0 l/m 0,0 km/h (0 Bft) O 90 0 min 0,0 UV-I 1,3 C 3,9 C 0,0 km/h (0 Bft)
29.10.2014 21:10 3,1 C 22,4 C 4,4 C 4,2 C 4,2 C 1,1 C 89 % 91 % 0 % 1023,1 hPa 0,0 l/m 0,0 km/h (0 Bft) O-NO 67 0 min 0,0 UV-I 1,5 C 4,2 C 0,0 km/h (0 Bft)
29.10.2014 21:15 3,1 C 22,4 C 4,4 C 4,3 C 4,3 C 1,2 C 89 % 91 % 0 % 1023,1 hPa 0,0 l/m 0,0 km/h (0 Bft) O-NO 67 0 min 0,0 UV-I 1,5 C 4,3 C 0,0 km/h (0 Bft)
29.10.2014 21:20 3,2 C 22,4 C 4,7 C 4,5 C 4,5 C 1,3 C 89 % 91 % 0 % 1023,1 hPa 0,0 l/m 0,0 km/h (0 Bft) O-NO 67 0 min 0,0 UV-I 1,6 C 4,5 C 0,0 km/h (0 Bft)
29.10.2014 21:25 3,5 C 22,4 C 4,7 C 4,6 C 4,6 C 1,1 C 90 % 91 % 0 % 1023,1 hPa 0,0 l/m 0,0 km/h (0 Bft) O-NO 67 0 min 0,0 UV-I 2,0 C 4,6 C 0,0 km/h (0 Bft)
29.10.2014 21:30 3,5 C 22,4 C 4,7 C 4,6 C 4,6 C 1,1 C 90 % 91 % 0 % 1023,3 hPa 0,0 l/m 0,0 km/h (0 Bft) O-SO 112 0 min 0,0 UV-I 2,0 C 4,6 C 0,0 km/h (0 Bft)
29.10.2014 21:35 3,5 C 22,4 C 4,8 C 4,6 C 4,6 C 1,1 C 90 % 91 % 0 % 1023,3 hPa 0,0 l/m 0,0 km/h (0 Bft) N 360 0 min 0,0 UV-I 2,0 C 4,6 C 0,0 km/h (0 Bft)
29.10.2014 21:42 3,4 C 22,3 C 4,5 C 4,5 C 4,5 C 1,1 C 90 % 91 % 0 % 1023,3 hPa 0,0 l/m 0,0 km/h (0 Bft) N 0 0 min 0,0 UV-I 1,9 C 4,5 C 0,0 km/h (0 Bft)
29.10.2014 21:45 3,4 C 22,2 C 4,4 C 4,2 C 4,2 C 0,8 C 89 % 91 % 0 % 1023,3 hPa 0,0 l/m 0,0 km/h (0 Bft) W-SW 247 0 min 0,0 UV-I 1,8 C 4,2 C 0,0 km/h (0 Bft)
29.10.2014 21:50 3,2 C 22,3 C 4,3 C 3,8 C 3,8 C 0,6 C 89 % 91 % 0 % 1023,2 hPa 0,0 l/m 0,0 km/h (0 Bft) SW 225 0 min 0,0 UV-I 1,6 C 3,8 C 0,0 km/h (0 Bft)
29.10.2014 21:55 3,2 C 22,3 C 4,2 C 3,6 C 3,6 C 0,4 C 89 % 91 % 0 % 1023,2 hPa 0,0 l/m 0,0 km/h (0 Bft) W-SW 247 0 min 0,0 UV-I 1,6 C 3,6 C 0,0 km/h (0 Bft)
29.10.2014 22:00 3,2 C 22,4 C 4,3 C 3,5 C 3,5 C 0,3 C 89 % 91 % 0 % 1023,2 hPa 0,0 l/m 0,0 km/h (0 Bft) O-NO 67 0 min 0,0 UV-I 1,6 C 3,5 C 0,0 km/h (0 Bft)
29.10.2014 22:05 3,2 C 22,4 C 4,2 C 3,5 C 3,5 C 0,3 C 89 % 91 % 0 % 1023,2 hPa 0,0 l/m 0,0 km/h (0 Bft) O-NO 67 0 min 0,0 UV-I 1,6 C 3,5 C 0,0 km/h (0 Bft)
29.10.2014 22:10 3,0 C 22,3 C 4,0 C 3,3 C 3,3 C 0,3 C 89 % 91 % 0 % 1024,0 hPa 0,0 l/m 0,0 km/h (0 Bft) W 270 0 min 0,0 UV-I 1,4 C 3,3 C 0,0 km/h (0 Bft)
29.10.2014 22:15 2,9 C 22,3 C 4,0 C 3,1 C 3,1 C 0,2 C 89 % 91 % 0 % 1024,0 hPa 0,0 l/m 0,0 km/h (0 Bft) NW 315 0 min 0,0 UV-I 1,3 C 3,1 C 0,0 km/h (0 Bft)
29.10.2014 22:20 2,8 C 22,3 C 4,0 C 3,3 C 3,3 C 0,5 C 89 % 91 % 0 % 1024,0 hPa 0,0 l/m 0,0 km/h (0 Bft) NW 315 0 min 0,0 UV-I 1,2 C 3,3 C 0,0 km/h (0 Bft)
29.10.2014 22:25 2,9 C 22,3 C 4,3 C 3,4 C 3,4 C 0,5 C 89 % 91 % 0 % 1024,0 hPa 0,0 l/m 0,0 km/h (0 Bft) S-SW 202 0 min 0,0 UV-I 1,3 C 3,4 C 0,0 km/h (0 Bft)
29.10.2014 22:30 2,9 C 22,3 C 4,4 C 4,0 C 4,0 C 1,1 C 89 % 91 % 0 % 1023,6 hPa 0,0 l/m 0,0 km/h (0 Bft) O-NO 67 0 min 0,0 UV-I 1,3 C 4,0 C 0,0 km/h (0 Bft)
29.10.2014 22:35 3,1 C 22,3 C 4,5 C 4,1 C 4,1 C 1,0 C 89 % 91 % 0 % 1023,6 hPa 0,0 l/m 0,0 km/h (0 Bft) O-SO 112 0 min 0,0 UV-I 1,5 C 4,1 C 0,0 km/h (0 Bft)
29.10.2014 22:40 3,2 C 22,3 C 4,4 C 4,4 C 4,4 C 1,2 C 89 % 91 % 0 % 1023,6 hPa 0,0 l/m 0,0 km/h (0 Bft) O 90 0 min 0,0 UV-I 1,6 C 4,4 C 0,0 km/h (0 Bft)
29.10.2014 22:45 3,3 C 22,4 C 4,7 C 4,5 C 4,5 C 1,2 C 90 % 91 % 0 % 1023,6 hPa 0,0 l/m 0,0 km/h (0 Bft) O 90 0 min 0,0 UV-I 1,8 C 4,5 C 0,0 km/h (0 Bft)
29.10.2014 22:50 3,4 C 22,4 C 4,7 C 4,5 C 4,5 C 1,1 C 90 % 91 % 0 % 1023,7 hPa 0,0 l/m 0,0 km/h (0 Bft) O 90 0 min 0,0 UV-I 1,9 C 4,5 C 0,0 km/h (0 Bft)
29.10.2014 22:55 3,5 C 22,4 C 4,7 C 4,6 C 4,6 C 1,1 C 90 % 91 % 0 % 1023,7 hPa 0,0 l/m 0,0 km/h (0 Bft) O 90 0 min 0,0 UV-I 2,0 C 4,6 C 0,0 km/h (0 Bft)
29.10.2014 23:00 3,6 C 22,4 C 4,8 C 4,7 C 4,7 C 1,1 C 90 % 91 % 0 % 1023,7 hPa 0,0 l/m 0,2 km/h (0 Bft) O 90 0 min 0,0 UV-I 2,1 C 4,7 C 0,0 km/h (0 Bft)
29.10.2014 23:05 3,6 C 22,4 C 4,8 C 4,7 C 4,7 C 1,1 C 90 % 91 % 0 % 1023,7 hPa 0,0 l/m 0,2 km/h (0 Bft) O-NO 67 0 min 0,0 UV-I 2,1 C 4,7 C 0,0 km/h (0 Bft)
29.10.2014 23:10 3,6 C 22,4 C 4,8 C 4,7 C 4,7 C 1,1 C 90 % 91 % 0 % 1023,7 hPa 0,0 l/m 0,0 km/h (0 Bft) NO 45 0 min 0,0 UV-I 2,1 C 4,7 C 0,0 km/h (0 Bft)
29.10.2014 23:15 3,6 C 22,4 C 4,9 C 4,7 C 4,7 C 1,1 C 90 % 91 % 0 % 1023,7 hPa 0,0 l/m 0,0 km/h (0 Bft) NO 45 0 min 0,0 UV-I 2,1 C 4,7 C 0,0 km/h (0 Bft)
29.10.2014 23:20 3,6 C 22,4 C 4,8 C 4,7 C 4,7 C 1,1 C 90 % 91 % 0 % 1023,7 hPa 0,0 l/m 0,0 km/h (0 Bft) O 90 0 min 0,0 UV-I 2,1 C 4,7 C 0,0 km/h (0 Bft)
29.10.2014 23:25 3,8 C 22,4 C 4,9 C 4,7 C 4,7 C 0,9 C 90 % 91 % 0 % 1023,7 hPa 0,0 l/m 0,0 km/h (0 Bft) O-SO 112 0 min 0,0 UV-I 2,3 C 4,7 C 0,0 km/h (0 Bft)
29.10.2014 23:30 3,9 C 22,4 C 4,7 C 4,5 C 4,5 C 0,6 C 90 % 91 % 0 % 1023,7 hPa 0,0 l/m 0,0 km/h (0 Bft) O 90 0 min 0,0 UV-I 2,4 C 4,5 C 0,0 km/h (0 Bft)
29.10.2014 23:35 3,9 C 22,2 C 4,7 C 4,4 C 4,4 C 0,5 C 90 % 91 % 0 % 1023,7 hPa 0,0 l/m 0,0 km/h (0 Bft) O-SO 112 0 min 0,0 UV-I 2,4 C 4,4 C 0,0 km/h (0 Bft)
29.10.2014 23:40 3,9 C 22,2 C 4,6 C 4,3 C 4,3 C 0,4 C 90 % 91 % 0 % 1023,7 hPa 0,0 l/m 0,0 km/h (0 Bft) O-NO 67 0 min 0,0 UV-I 2,4 C 4,3 C 0,0 km/h (0 Bft)
29.10.2014 23:45 3,7 C 22,2 C 4,5 C 4,2 C 4,2 C 0,5 C 90 % 91 % 0 % 1023,7 hPa 0,0 l/m 0,0 km/h (0 Bft) NW 315 0 min 0,0 UV-I 2,2 C 4,2 C 0,0 km/h (0 Bft)
29.10.2014 23:50 3,6 C 22,2 C 4,6 C 4,2 C 4,2 C 0,6 C 90 % 91 % 0 % 1023,8 hPa 0,0 l/m 0,0 km/h (0 Bft) O 90 0 min 0,0 UV-I 2,1 C 4,2 C 0,0 km/h (0 Bft)
29.10.2014 23:55 3,7 C 22,2 C 4,7 C 4,5 C 4,5 C 0,8 C 90 % 91 % 0 % 1023,8 hPa 0,0 l/m 0,0 km/h (0 Bft) O 90 0 min 0,0 UV-I 2,2 C 4,5 C 0,0 km/h (0 Bft)
_ Min-Zeit 05:15 09:50 04:55 05:15 04:50 00:00 14:55 12:45 00:00 03:30 - 00:00 - - - 00:00 05:15 04:50 00:00
Minimum _ -2,3 C 21,1 C -0,5 C -2,3 C -2,4 C 0,0 C 71 % 82 % 0 % 1019,9 hPa - 0,0 km/h (0 Bft) - - - 0,0 UV-I -3,7 C -2,4 C 0,0 km/h (0 Bft)
_ Max-Zeit 14:55 00:00 12:35 15:15 15:15 11:50 10:40 00:45 09:10 22:10 00:00 10:45 - - 09:42 00:00 14:45 15:15 10:45
Maximum _ 12,5 C 22,5 C 10,6 C 15,9 C 15,9 C 6,5 C 93 % 92 % 100 % 1024,0 hPa 0,0 l/m 4,3 km/h
S (1 Bft)
- - 7 min 0,0 UV-I 7,6 C 15,9 C 12,2 km/h
S (2 Bft)
Durchschnitt _ 3,4 C 21,8 C 4,4 C 4,6 C 4,5 C 1,3 C 86 % 89 % 27 % 1021,4 hPa #0,0 l/m 0,4 km/h (0 Bft) W-SW - #6:17 h 0,0 UV-I 1,2 C 4,5 C 0,7 km/h (0 Bft)
2014 www.wetterstation-wechselburg.de